• In Hungary
  • List of Countries
  • For 7 days
  • Water Temperature
  • Satellite Maps
  • Weather Map
  • News
  • Weather Widgets
  • user-avatar
    Login

    Hourly Weather Czastkowo

    Today, 24 September, Monday

    Time Temperature Precipitation Wind Pressure Humidity
    00:00 +9°C° 0.5 mm 3 mps 740 mmHg 82%
    01:00 +8°C° 0.5 mm 4 mps 740 mmHg 83%
    02:00 +8°C° 0.2 mm 4 mps 740 mmHg 83%
    03:00 +8°C° 0.2 mm 5 mps 741 mmHg 82%
    04:00 +8°C° 0.2 mm 5 mps 741 mmHg 81%
    05:00 +8°C° 0.1 mm 5 mps 741 mmHg 79%
    06:00 +8°C° 0.1 mm 6 mps 742 mmHg 77%
    07:00 +8°C° 0.1 mm 6 mps 742 mmHg 75%
    08:00 +9°C° 0.2 mm 7 mps 742 mmHg 68%
    09:00 +10°C° 0.2 mm 7 mps 743 mmHg 62%
    10:00 +11°C° 0.2 mm 8 mps 744 mmHg 55%
    11:00 +11°C° 0.6 mm 8 mps 745 mmHg 56%
    12:00 +11°C° 0.6 mm 8 mps 745 mmHg 57%
    13:00 +10°C° 0.6 mm 8 mps 746 mmHg 58%
    14:00 +10°C° 0.2 mm 7 mps 747 mmHg 56%
    15:00 +10°C° 0.2 mm 7 mps 748 mmHg 55%
    16:00 +10°C° 0.2 mm 7 mps 748 mmHg 53%
    17:00 +9°C° 0.1 mm 6 mps 749 mmHg 56%
    18:00 +8°C° 0.1 mm 5 mps 750 mmHg 58%
    19:00 +7°C° 0.1 mm 4 mps 750 mmHg 60%
    20:00 +7°C° 0.1 mm 4 mps 751 mmHg 61%
    21:00 +7°C° 0.1 mm 4 mps 751 mmHg 61%
    22:00 +6°C° 0.1 mm 4 mps 752 mmHg 62%
    23:00 +6°C° 0 mm 4 mps 752 mmHg 63%

    Tomorrow, 25 September, Tuesday

    Time Temperature Precipitation Wind Pressure Humidity
    00:00 +6°C° 0 mm 4 mps 753 mmHg 64%
    01:00 +6°C° 0 mm 4 mps 753 mmHg 64%
    02:00 +5°C° 0.1 mm 4 mps 754 mmHg 64%
    03:00 +5°C° 0.1 mm 4 mps 754 mmHg 64%
    04:00 +5°C° 0.1 mm 5 mps 755 mmHg 63%
    05:00 +6°C° 0 mm 5 mps 755 mmHg 61%
    06:00 +6°C° 0 mm 5 mps 756 mmHg 59%
    07:00 +6°C° 0 mm 5 mps 756 mmHg 57%
    08:00 +8°C° 0 mm 6 mps 757 mmHg 52%
    09:00 +9°C° 0 mm 7 mps 758 mmHg 46%
    10:00 +10°C° 0 mm 7 mps 759 mmHg 41%
    11:00 +10°C° 0 mm 7 mps 759 mmHg 39%
    12:00 +11°C° 0 mm 7 mps 759 mmHg 38%
    13:00 +11°C° 0 mm 6 mps 760 mmHg 36%
    14:00 +10°C° 0 mm 6 mps 760 mmHg 37%
    15:00 +10°C° 0 mm 5 mps 760 mmHg 38%
    16:00 +10°C° 0 mm 5 mps 760 mmHg 39%
    17:00 +8°C° 0 mm 4 mps 760 mmHg 43%
    18:00 +8°C° 0 mm 3 mps 761 mmHg 47%
    19:00 +7°C° 0 mm 2 mps 761 mmHg 51%
    20:00 +5°C° 0 mm 3 mps 761 mmHg 52%
    21:00 +5°C° 0 mm 3 mps 761 mmHg 53%
    22:00 +5°C° 0 mm 3 mps 761 mmHg 54%
    23:00 +5°C° 0 mm 3 mps 761 mmHg 57%

    Day after tomorrow, 26 September, Wednesday

    Time Temperature Precipitation Wind Pressure Humidity
    00:00 +5°C° 0 mm 3 mps 761 mmHg 60%
    01:00 +5°C° 0 mm 4 mps 761 mmHg 64%
    02:00 +5°C° 0 mm 4 mps 761 mmHg 66%
    03:00 +5°C° 0 mm 4 mps 760 mmHg 67%
    04:00 +5°C° 0 mm 5 mps 760 mmHg 69%
    05:00 +5°C° 0 mm 5 mps 760 mmHg 68%
    06:00 +5°C° 0 mm 6 mps 760 mmHg 67%
    07:00 +5°C° 0 mm 6 mps 759 mmHg 66%
    08:00 +8°C° 0 mm 7 mps 759 mmHg 61%
    09:00 +9°C° 0 mm 8 mps 759 mmHg 56%
    10:00 +11°C° 0 mm 8 mps 758 mmHg 51%
    11:00 +11°C° 0.1 mm 8 mps 758 mmHg 52%
    12:00 +11°C° 0.1 mm 8 mps 757 mmHg 52%
    13:00 +11°C° 0.1 mm 8 mps 756 mmHg 53%
    14:00 +10°C° 0.3 mm 8 mps 756 mmHg 55%
    15:00 +10°C° 0.3 mm 8 mps 755 mmHg 57%
    16:00 +9°C° 0.3 mm 8 mps 754 mmHg 59%
    17:00 +9°C° 0.3 mm 8 mps 754 mmHg 60%
    18:00 +10°C° 0.3 mm 8 mps 754 mmHg 61%
    19:00 +10°C° 0.3 mm 8 mps 753 mmHg 62%
    20:00 +10°C° 0.3 mm 8 mps 753 mmHg 63%
    21:00 +10°C° 0.3 mm 8 mps 752 mmHg 64%
    22:00 +11°C° 0.3 mm 8 mps 752 mmHg 65%
    23:00 +11°C° 0.1 mm 8 mps 752 mmHg 68%

    27 September, Thursday

    Time Temperature Precipitation Wind Pressure Humidity
    00:00 +11°C° 0.1 mm 8 mps 751 mmHg 71%
    01:00 +12°C° 0.1 mm 8 mps 751 mmHg 74%
    02:00 +12°C° 0.2 mm 8 mps 751 mmHg 77%
    03:00 +12°C° 0.2 mm 8 mps 750 mmHg 79%
    04:00 +13°C° 0.2 mm 8 mps 750 mmHg 82%
    05:00 +13°C° 0.1 mm 8 mps 750 mmHg 83%
    06:00 +13°C° 0.1 mm 8 mps 750 mmHg 83%
    07:00 +15°C° 0.1 mm 8 mps 750 mmHg 84%
    08:00 +15°C° 0.1 mm 8 mps 750 mmHg 82%
    09:00 +15°C° 0.1 mm 8 mps 750 mmHg 80%
    10:00 +16°C° 0.1 mm 8 mps 751 mmHg 78%
    11:00 +16°C° 0.1 mm 8 mps 750 mmHg 77%
    12:00 +16°C° 0.1 mm 8 mps 750 mmHg 75%
    13:00 +16°C° 0.1 mm 8 mps 750 mmHg 74%
    14:00 +16°C° 0 mm 8 mps 750 mmHg 74%
    15:00 +16°C° 0 mm 7 mps 750 mmHg 75%
    16:00 +16°C° 0 mm 7 mps 749 mmHg 75%
    17:00 +16°C° 0 mm 7 mps 749 mmHg 76%
    18:00 +15°C° 0 mm 6 mps 749 mmHg 77%
    19:00 +15°C° 0 mm 6 mps 748 mmHg 77%
    20:00 +15°C° 0 mm 7 mps 748 mmHg 77%
    21:00 +16°C° 0 mm 7 mps 747 mmHg 77%
    22:00 +16°C° 0 mm 7 mps 747 mmHg 77%
    23:00 +16°C° 0.2 mm 7 mps 747 mmHg 78%

    28 September, Friday

    Time Temperature Precipitation Wind Pressure Humidity
    00:00 +15°C° 0.2 mm 8 mps 747 mmHg 79%
    01:00 +15°C° 0.2 mm 8 mps 747 mmHg 80%
    02:00 +14°C° 0.1 mm 7 mps 747 mmHg 79%
    03:00 +12°C° 0.1 mm 7 mps 747 mmHg 78%
    04:00 +11°C° 0.1 mm 6 mps 748 mmHg 77%
    05:00 +12°C° 0 mm 5 mps 748 mmHg 76%
    06:00 +10°C° 0 mm 5 mps 748 mmHg 76%
    07:00 +10°C° 0 mm 4 mps 749 mmHg 76%
    08:00 +11°C° 0 mm 4 mps 750 mmHg 69%
    09:00 +13°C° 0 mm 5 mps 750 mmHg 63%
    10:00 +14°C° 0 mm 5 mps 751 mmHg 57%
    11:00 +14°C° 0 mm 5 mps 751 mmHg 54%
    12:00 +15°C° 0 mm 4 mps 751 mmHg 51%
    13:00 +15°C° 0 mm 4 mps 751 mmHg 48%
    14:00 +14°C° 0 mm 4 mps 751 mmHg 50%
    15:00 +14°C° 0 mm 4 mps 751 mmHg 52%
    16:00 +13°C° 0 mm 3 mps 751 mmHg 53%
    17:00 +12°C° 0 mm 3 mps 752 mmHg 57%
    18:00 +12°C° 0 mm 2 mps 752 mmHg 60%
    19:00 +10°C° 0 mm 2 mps 752 mmHg 64%
    20:00 +10°C° 0 mm 2 mps 752 mmHg 64%
    21:00 +10°C° 0 mm 1 mps 752 mmHg 65%
    22:00 +10°C° 0 mm 1 mps 753 mmHg 66%
    23:00 +10°C° 0 mm 1 mps 753 mmHg 67%

    29 September, Saturday

    Time Temperature Precipitation Wind Pressure Humidity
    00:00 +9°C° 0 mm 1 mps 753 mmHg 69%
    01:00 +9°C° 0 mm 1 mps 753 mmHg 71%
    02:00 +8°C° 0 mm 1 mps 753 mmHg 73%
    03:00 +8°C° 0 mm 1 mps 753 mmHg 75%
    04:00 +7°C° 0 mm 1 mps 754 mmHg 77%
    05:00 +8°C° 0 mm 1 mps 754 mmHg 77%
    06:00 +8°C° 0 mm 1 mps 754 mmHg 76%
    07:00 +8°C° 0 mm 1 mps 755 mmHg 76%
    08:00 +10°C° 0 mm 1 mps 755 mmHg 69%
    09:00 +12°C° 0 mm 1 mps 756 mmHg 61%
    10:00 +13°C° 0 mm 2 mps 756 mmHg 54%
    11:00 +14°C° 0 mm 1 mps 756 mmHg 50%
    12:00 +15°C° 0 mm 1 mps 756 mmHg 46%
    13:00 +16°C° 0 mm 1 mps 756 mmHg 41%
    14:00 +15°C° 0 mm 1 mps 756 mmHg 43%
    15:00 +15°C° 0 mm 1 mps 756 mmHg 44%
    16:00 +14°C° 0 mm 1 mps 756 mmHg 46%
    17:00 +13°C° 0 mm 1 mps 756 mmHg 50%
    18:00 +12°C° 0 mm 1 mps 757 mmHg 54%
    19:00 +10°C° 0 mm 1 mps 757 mmHg 58%
    20:00 +10°C° 0 mm 1 mps 757 mmHg 60%
    21:00 +9°C° 0 mm 1 mps 757 mmHg 61%
    22:00 +8°C° 0 mm 2 mps 757 mmHg 63%
    23:00 +8°C° 0 mm 2 mps 757 mmHg 64%
    Show more

    3.3.7123123